Pine River, MN

7:22 PM CDT on August 22, 2017 (GMT -0500)
Pine River Regional

Weather History for KPWC - August, 2013

Change the Weather History Date:

Thursday, August 1, 2013

  Actual Average Record
Temperature  
Mean Temperature 60 °F -  
Max Temperature 75 °F 77 °F 89 °F (1997)
Min Temperature 46 °F 53 °F 46 °F (2013)
Degree Days  
Heating Degree Days 4    
Growing Degree Days 10 (Base 50)    
Moisture  
Dew Point 52 °F    
Average Humidity 70    
Maximum Humidity 100    
Minimum Humidity 44    
Precipitation  
Precipitation 0.00 in - - ()
Sea Level Pressure  
Sea Level Pressure 30.00 in    
Wind  
Wind Speed 2 mph (WNW)    
Max Wind Speed 10 mph    
Max Gust Speed 16 mph    
Visibility 10 miles    
Events      
Averages and records for this station are not official NWS values.
T = Trace of Precipitation, MM = Missing Value Source: NWS Daily Summary

Daily Weather History Graph

Daily Weather History Graph

Search for Another Location

Airport or City:

Trip Planner

Search our weather history database for the weather conditions in past years. The results will help you decide how hot, cold, wet, or windy it might be!

Date:

Astronomy

Aug. 01, 2013 Rise Set
Actual Time 5:58 AM CDT 8:48 PM CDT
Civil Twilight 5:22 AM CDT 9:23 PM CDT
Nautical Twilight 4:37 AM CDT 10:08 PM CDT
Astronomical Twilight 3:44 AM CDT 11:01 PM CDT
Moon 1:33 AM CDT (8/1) 5:00 PM CDT (8/1)
Length of Visible Light 16h 00m
Length of Day
14h 50m
Waning Crescent, 23% of the Moon is Illuminated
Aug 1
Waning Crescent
Aug 6
New
Aug 14
First Quarter
Aug 20
Full
Aug 28
Last Quarter

Hourly Weather History & Observations

Time (CDT) Temp. Dew Point Humidity Pressure Visibility Wind Dir Wind Speed Gust Speed Precip Events Conditions
12:13 AM 51.8 °F 48.2 °F 88% 30.05 in 10.0 mi Calm Calm - N/A   Clear
12:33 AM 51.8 °F 48.2 °F 88% 30.05 in 10.0 mi Calm Calm - N/A   Clear
12:53 AM 51.8 °F 48.2 °F 88% 30.05 in 10.0 mi Calm Calm - N/A   Clear
1:12 AM 50.0 °F 48.2 °F 94% 30.05 in 10.0 mi Calm Calm - N/A   Clear
1:33 AM 50.0 °F 48.2 °F 94% 30.04 in 10.0 mi Calm Calm - N/A   Clear
1:53 AM 51.8 °F 48.2 °F 88% 30.04 in 10.0 mi Calm Calm - N/A   Clear
2:12 AM 50.0 °F 48.2 °F 94% 30.04 in 10.0 mi Calm Calm - N/A   Clear
2:33 AM 48.2 °F 48.2 °F 100% 30.04 in 10.0 mi Calm Calm - N/A   Clear
2:53 AM 51.8 °F 48.2 °F 88% 30.04 in 10.0 mi Calm Calm - N/A   Clear
3:12 AM 53.6 °F 48.2 °F 82% 30.04 in 10.0 mi Calm Calm - N/A   Clear
3:33 AM 53.6 °F 48.2 °F 82% 30.04 in 10.0 mi Calm Calm - N/A   Clear
3:53 AM 50.0 °F 46.4 °F 87% 30.04 in 10.0 mi Calm Calm - N/A   Clear
4:12 AM 48.2 °F 46.4 °F 93% 30.04 in 10.0 mi Calm Calm - N/A   Clear
4:33 AM 48.2 °F 46.4 °F 93% 30.05 in 10.0 mi Calm Calm - N/A   Clear
4:53 AM 48.2 °F 46.4 °F 93% 30.05 in 10.0 mi Calm Calm - N/A   Clear
5:13 AM 48.2 °F 48.2 °F 100% 30.05 in 10.0 mi Calm Calm - N/A   Clear
5:33 AM 48.2 °F 48.2 °F 100% 30.05 in 10.0 mi Calm Calm - N/A   Clear
5:53 AM 46.4 °F 46.4 °F 100% 30.05 in 10.0 mi Calm Calm - N/A   Clear
6:13 AM 46.4 °F 46.4 °F 100% 30.05 in 10.0 mi Calm Calm - N/A   Clear
6:33 AM 46.4 °F 46.4 °F 100% 30.05 in 10.0 mi Calm Calm - N/A   Clear
6:53 AM 50.0 °F 48.2 °F 94% 30.05 in 10.0 mi Calm Calm - N/A   Clear
7:13 AM 53.6 °F 51.8 °F 94% 30.05 in 10.0 mi Calm Calm - N/A   Clear
7:32 AM 55.4 °F 51.8 °F 88% 30.05 in 10.0 mi Calm Calm - N/A   Clear
7:52 AM 57.2 °F 51.8 °F 82% 30.05 in 10.0 mi West 4.6 mph - N/A   Clear
8:13 AM 59.0 °F 51.8 °F 77% 30.05 in 10.0 mi West 3.5 mph - N/A   Clear
8:31 AM 60.8 °F 53.6 °F 77% 30.05 in 10.0 mi Calm Calm - N/A   Clear
8:53 AM 62.6 °F 53.6 °F 72% 30.04 in 10.0 mi West 4.6 mph - N/A   Clear
9:12 AM 64.4 °F 53.6 °F 68% 30.04 in 10.0 mi West 4.6 mph - N/A   Clear
9:33 AM 66.2 °F 53.6 °F 64% 30.04 in 10.0 mi West 5.8 mph - N/A   Clear
9:53 AM 66.2 °F 53.6 °F 64% 30.03 in 10.0 mi NW 9.2 mph - N/A   Clear
10:13 AM 69.8 °F 53.6 °F 56% 30.03 in 10.0 mi West 8.1 mph - N/A   Clear
10:33 AM 69.8 °F 53.6 °F 56% 30.03 in 10.0 mi West 5.8 mph - N/A   Clear
10:52 AM 69.8 °F 53.6 °F 56% 30.03 in 10.0 mi WNW 6.9 mph - N/A   Clear
11:13 AM 71.6 °F 51.8 °F 50% 30.03 in 10.0 mi WNW 10.4 mph - N/A   Clear
11:32 AM 71.6 °F 51.8 °F 50% 30.03 in 10.0 mi West 8.1 mph 16.1 mph N/A   Clear
11:52 AM 71.6 °F 51.8 °F 50% 30.03 in 10.0 mi West 8.1 mph - N/A   Scattered Clouds
12:13 PM 73.4 °F 51.8 °F 47% 30.03 in 10.0 mi WNW 8.1 mph - N/A   Clear
12:32 PM 73.4 °F 51.8 °F 47% 30.02 in 10.0 mi NW 5.8 mph - N/A   Scattered Clouds
12:53 PM 71.6 °F 51.8 °F 50% 30.01 in 10.0 mi WNW 5.8 mph - N/A   Scattered Clouds
1:13 PM 73.4 °F 53.6 °F 50% 30.01 in 10.0 mi Calm Calm - N/A   Scattered Clouds
1:33 PM 73.4 °F 53.6 °F 50% 30.00 in 10.0 mi West 5.8 mph - N/A   Scattered Clouds
1:52 PM 73.4 °F 53.6 °F 50% 30.00 in 10.0 mi NNW 8.1 mph - N/A   Scattered Clouds
2:13 PM 75.2 °F 53.6 °F 47% 29.99 in 10.0 mi West 6.9 mph - N/A   Scattered Clouds
2:33 PM 73.4 °F 53.6 °F 50% 29.98 in 10.0 mi West 6.9 mph - N/A   Scattered Clouds
2:53 PM 75.2 °F 53.6 °F 47% 29.98 in 10.0 mi WNW 6.9 mph - N/A   Scattered Clouds
3:13 PM 73.4 °F 53.6 °F 50% 29.98 in 10.0 mi WNW 5.8 mph - N/A   Scattered Clouds
3:33 PM 73.4 °F 53.6 °F 50% 29.97 in 10.0 mi West 3.5 mph - N/A   Clear
3:52 PM 75.2 °F 53.6 °F 47% 29.97 in 10.0 mi NW 4.6 mph - N/A   Mostly Cloudy
4:13 PM 73.4 °F 53.6 °F 50% 29.96 in 10.0 mi NW 3.5 mph - N/A   Mostly Cloudy
4:33 PM 75.2 °F 53.6 °F 47% 29.95 in 10.0 mi NW 4.6 mph - N/A   Mostly Cloudy
4:52 PM 75.2 °F 53.6 °F 47% 29.95 in 10.0 mi NW 6.9 mph - N/A   Scattered Clouds
5:13 PM 73.4 °F 53.6 °F 50% 29.94 in 10.0 mi NW 8.1 mph - N/A   Scattered Clouds
5:33 PM 75.2 °F 53.6 °F 47% 29.93 in 10.0 mi WNW 3.5 mph - N/A   Clear
5:52 PM 75.2 °F 53.6 °F 47% 29.93 in 10.0 mi West 4.6 mph - N/A   Clear
6:13 PM 75.2 °F 51.8 °F 44% 29.93 in 10.0 mi WNW 6.9 mph - N/A   Clear
6:33 PM 73.4 °F 53.6 °F 50% 29.93 in 10.0 mi WNW 5.8 mph - N/A   Clear
6:52 PM 73.4 °F 53.6 °F 50% 29.93 in 10.0 mi Calm Calm - N/A   Clear
7:13 PM 73.4 °F 53.6 °F 50% 29.92 in 10.0 mi WNW 3.5 mph - N/A   Clear
7:33 PM 71.6 °F 53.6 °F 53% 29.92 in 10.0 mi Calm Calm - N/A   Clear
7:53 PM 71.6 °F 53.6 °F 53% 29.91 in 10.0 mi Calm Calm - N/A   Clear
8:13 PM 68.0 °F 55.4 °F 64% 29.91 in 10.0 mi Calm Calm - N/A   Clear
8:32 PM 66.2 °F 55.4 °F 68% 29.91 in 10.0 mi Calm Calm - N/A   Scattered Clouds
8:53 PM 66.2 °F 57.2 °F 73% 29.91 in 10.0 mi Calm Calm - N/A   Scattered Clouds
9:13 PM 62.6 °F 55.4 °F 77% 29.92 in 10.0 mi Calm Calm - N/A   Clear
9:33 PM 60.8 °F 55.4 °F 82% 29.92 in 10.0 mi Calm Calm - N/A   Clear
9:52 PM 60.8 °F 55.4 °F 82% 29.93 in 10.0 mi Calm Calm - N/A   Clear
10:13 PM 59.0 °F 53.6 °F 82% 29.94 in 10.0 mi Calm Calm - N/A   Clear
10:33 PM 57.2 °F 53.6 °F 88% 29.93 in 10.0 mi Calm Calm - N/A   Clear
10:52 PM 57.2 °F 53.6 °F 88% 29.94 in 10.0 mi Calm Calm - N/A   Clear
11:13 PM 59.0 °F 53.6 °F 82% 29.94 in 10.0 mi NW 3.5 mph - N/A   Scattered Clouds
11:31 PM 60.8 °F 53.6 °F 77% 29.94 in 10.0 mi NW 3.5 mph - N/A   Scattered Clouds
11:52 PM 60.8 °F 53.6 °F 77% 29.94 in 10.0 mi Calm Calm - N/A   Clear